Weather in Krasnodonskiy

Russia / Rostov Oblast     47°26′16″N   41°25′40″E
temp.,
°C
wind,
m/s
gust,
m/s
humid.,
%
clouds,
%
prec.,
mm/h
press.,
hPa
HPBL,
m
20 june, sun
sun2000:00+21ene717460 0.0 1017429
03:00+20ene717501 0.0 1017367
06:00+19ene71663100 0.0 1016367
09:00+23ene81558100 0.0 1016584
12:00+29ene813440 0.0 1015876
15:00+31e61242100 0.0 10141262
18:00+29ene6135599 0.0 1012304
21:00+26ese6174799 0.0 1014389
21 june, mon
mon2100:00+21e5134986 0.0 1014252
03:00+19e4125380 0.0 1014204
06:00+19e414625 0.0 1015304
09:00+26e614485 0.0 1015625
12:00+31e813393 0.0 10141384
15:00+33e813340 0.0 10131821
18:00+29e512450 0.0 1013315
21:00+23ese51449100 0.0 1014241
22 june, tue
tue2200:00+21e5154359 0.0 1014277
03:00+19e49432 0.0 1014130
06:00+20ene514620 0.0 1014261
09:00+27e7154620 0.0 1014671
12:00+33e8143696 0.0 10131625
15:00+35ese713315 0.0 10122474
18:00+32e410450 0.0 1011239
21:00+25ese412474 0.0 1012173
23 june, wed
wed2300:00+22e4742100 0.0 101390
03:00+22e494198 0.0 1014149
06:00+21ene51561100 0.0 1013274
09:00+28e59463 0.0 1015526
12:00+33ese7103478 0.0 10141377
15:00+35e713322 0.0 10142866
18:00+32e613390 0.0 1014382
21:00+25e4144816 0.0 1015230
24 june, thu
thu2400:00+23e41142100 0.0 1016169
03:00+21e463799 0.0 101581
06:00+20e4752100 0.0 1017115
09:00+26e4641100 0.0 1017389
12:00+31ene5833100 0.0 10161136
15:00+34ese4925100 0.0 10142131
18:00+29nne4843100 0.0 1013121
21:00+27ene41039100 0.0 1013149